| time (UTC) | temp F | wind direction | speed MPH | gust MPH | rain 1hr in | rain 24hr in | rain mn in | humidity % | barometer mb |
| 20260831152004 | 67 | 137 | 0.0 | 2.0 | 0.15 | 1.67 | 1.67 | 100 | 1023.4 |
| 20260831150003 | 67 | 150 | 2.0 | 3.0 | 0.30 | 1.68 | 1.67 | 100 | 1023.4 |
| 20260831145003 | 67 | 133 | 2.0 | 3.0 | 0.36 | 1.68 | 1.66 | 100 | 1023.3 |
| 20260831144003 | 67 | 154 | 1.0 | 3.0 | 0.42 | 1.65 | 1.63 | 100 | 1023.3 |
| 20260831143004 | 66 | 127 | 1.0 | 3.0 | 0.46 | 1.60 | 1.58 | 100 | 1023.5 |
| 20260831142004 | 66 | 129 | 1.0 | 5.0 | 0.47 | 1.54 | 1.52 | 100 | 1023.4 |
| 20260831141004 | 66 | 92 | 1.0 | 2.0 | 0.50 | 1.47 | 1.45 | 100 | 1023.5 |
| 20260831140004 | 66 | 116 | 1.0 | 3.0 | 0.52 | 1.39 | 1.37 | 100 | 1023.5 |
| 20260831135003 | 66 | 217 | 1.0 | 3.0 | 0.56 | 1.32 | 1.30 | 100 | 1023.5 |
| 20260831134004 | 66 | 153 | 2.0 | 3.0 | 0.57 | 1.23 | 1.21 | 100 | 1023.6 |
| 20260831133003 | 66 | 272 | 1.0 | 3.0 | 0.59 | 1.14 | 1.12 | 100 | 1023.6 |
| 20260831132003 | 66 | 214 | 1.0 | 3.0 | 0.64 | 1.07 | 1.05 | 100 | 1023.5 |
| 20260831131003 | 66 | 162 | 1.0 | 3.0 | 0.67 | 0.97 | 0.95 | 100 | 1023.5 |
| 20260831130004 | 66 | 198 | 1.0 | 3.0 | 0.69 | 0.87 | 0.85 | 100 | 1023.6 |
| 20260831124004 | 66 | 128 | 1.0 | 2.0 | 0.60 | 0.66 | 0.64 | 100 | 1023.7 |
| 20260831122004 | 66 | 127 | 1.0 | 3.0 | 0.37 | 0.43 | 0.41 | 100 | 1023.8 |
| 20260831121005 | 67 | 98 | 1.0 | 3.0 | 0.24 | 0.30 | 0.28 | 100 | 1024.0 |
| 20260831120005 | 67 | 0 | 0.0 | 2.0 | 0.12 | 0.18 | 0.16 | 100 | 1024.4 |
| 20260831115006 | 67 | 89 | 1.0 | 2.0 | 0.05 | 0.11 | 0.09 | 100 | 1023.9 |
| 20260831114005 | 67 | 152 | 0.0 | 2.0 | 0.00 | 0.06 | 0.04 | 100 | 1023.8 |
| 20260831112005 | 67 | 152 | 0.0 | 2.0 | 0.01 | 0.06 | 0.04 | 100 | 1023.6 |
| 20260831111006 | 67 | 158 | 1.0 | 3.0 | 0.01 | 0.06 | 0.04 | 99 | 1023.5 |
| 20260831110005 | 67 | 132 | 1.0 | 3.0 | 0.01 | 0.06 | 0.04 | 99 | 1023.7 |
| 20260831104005 | 67 | 190 | 0.0 | 2.0 | 0.02 | 0.06 | 0.04 | 99 | 1023.5 |
| 20260831102006 | 67 | 190 | 0.0 | 2.0 | 0.02 | 0.05 | 0.03 | 99 | 1023.6 |
| 20260831101007 | 67 | 190 | 0.0 | 2.0 | 0.02 | 0.05 | 0.03 | 99 | 1023.6 |
| 20260831100005 | 67 | 146 | 0.0 | 2.0 | 0.02 | 0.05 | 0.03 | 99 | 1023.4 |
| 20260831095005 | 67 | 121 | 1.0 | 2.0 | 0.01 | 0.04 | 0.02 | 99 | 1023.5 |
| 20260831093005 | 67 | 135 | 0.0 | 2.0 | 0.01 | 0.04 | 0.02 | 99 | 1023.6 |
| 20260831092005 | 67 | 103 | 0.0 | 2.0 | 0.00 | 0.03 | 0.01 | 99 | 1023.6 |
| 20260831091006 | 67 | 128 | 0.0 | 3.0 | 0.00 | 0.03 | 0.01 | 99 | 1023.7 |
| 20260831090006 | 67 | 235 | 0.0 | 1.0 | 0.00 | 0.03 | 0.01 | 99 | 1023.9 |
| 20260831085005 | 67 | 235 | 0.0 | 0.0 | 0.00 | 0.03 | 0.01 | 99 | 1023.9 |
| 20260831084005 | 67 | 235 | 0.0 | 0.0 | 0.00 | 0.03 | 0.01 | 99 | 1023.9 |
| 20260831082005 | 67 | 235 | 0.0 | 0.0 | 0.00 | 0.03 | 0.01 | 99 | 1024.2 |
| 20260831081006 | 67 | 235 | 0.0 | 0.0 | 0.00 | 0.03 | 0.01 | 99 | 1024.2 |
| 20260831080006 | 67 | 235 | 0.0 | 0.0 | 0.01 | 0.03 | 0.01 | 99 | 1024.2 |
| 20260831075005 | 67 | 235 | 1.0 | 1.0 | 0.01 | 0.03 | 0.01 | 99 | 1024.1 |
| 20260831074005 | 66 | 235 | 0.0 | 0.0 | 0.01 | 0.03 | 0.01 | 99 | 1024.2 |
| 20260831073005 | 66 | 235 | 0.0 | 0.0 | 0.01 | 0.03 | 0.01 | 99 | 1024.1 |
| 20260831072005 | 66 | 235 | 0.0 | 0.0 | 0.01 | 0.03 | 0.01 | 99 | 1024.3 |
| 20260831071006 | 66 | 235 | 0.0 | 0.0 | 0.01 | 0.03 | 0.01 | 99 | 1024.2 |
| 20260831070006 | 66 | 235 | 0.0 | 1.0 | 0.00 | 0.02 | 0.00 | 99 | 1024.3 |
| 20260831064006 | 66 | 235 | 0.0 | 0.0 | 0.00 | 0.02 | 0.00 | 99 | 1024.5 |
| 20260831063005 | 66 | 235 | 0.0 | 0.0 | 0.00 | 0.02 | 0.00 | 99 | 1024.4 |
| 20260831061006 | 66 | 235 | 0.0 | 0.0 | 0.00 | 0.02 | 0.00 | 99 | 1024.6 |
| 20260831060006 | 66 | 235 | 0.0 | 0.0 | 0.00 | 0.02 | 0.00 | 99 | 1024.6 |
| 20260831055006 | 66 | 235 | 0.0 | 0.0 | 0.00 | 0.02 | 0.00 | 99 | 1024.6 |
| 20260831054005 | 66 | 235 | 0.0 | 0.0 | 0.00 | 0.02 | 0.00 | 98 | 1024.7 |
| 20260831053006 | 66 | 235 | 0.0 | 0.0 | 0.00 | 0.02 | 0.00 | 98 | 1024.6 |
| 20260831050005 | 66 | 235 | 0.0 | 0.0 | 0.00 | 0.02 | 0.00 | 98 | 1024.5 |
| 20260831045007 | 66 | 235 | 0.0 | 0.0 | 0.00 | 0.02 | 0.00 | 98 | 1024.5 |
| 20260831044006 | 66 | 235 | 0.0 | 0.0 | 0.00 | 0.02 | 0.00 | 98 | 1024.6 |
| 20260831043006 | 66 | 235 | 0.0 | 1.0 | 0.00 | 0.02 | 0.00 | 98 | 1024.5 |
| 20260831040006 | 66 | 235 | 0.0 | 0.0 | 0.00 | 0.02 | 0.00 | 98 | 1024.8 |
| 20260831035006 | 66 | 235 | 0.0 | 0.0 | 0.00 | 0.02 | 0.02 | 98 | 1024.8 |
| 20260831034006 | 66 | 235 | 0.0 | 0.0 | 0.00 | 0.02 | 0.02 | 98 | 1024.8 |
| 20260831033007 | 65 | 235 | 0.0 | 0.0 | 0.00 | 0.02 | 0.02 | 97 | 1024.7 |
| 20260831032006 | 66 | 235 | 0.0 | 0.0 | 0.00 | 0.02 | 0.02 | 98 | 1024.7 |
| 20260831030016 | 66 | 235 | 0.0 | 0.0 | 0.00 | 0.02 | 0.02 | 97 | 1024.7 |
| 20260831024007 | 66 | 235 | 0.0 | 0.0 | 0.00 | 0.02 | 0.02 | 97 | 1024.8 |
| 20260831023007 | 66 | 235 | 0.0 | 0.0 | 0.00 | 0.02 | 0.02 | 97 | 1024.7 |
| 20260831022008 | 66 | 235 | 0.0 | 0.0 | 0.00 | 0.02 | 0.02 | 97 | 1024.8 |
| 20260831021008 | 66 | 235 | 0.0 | 0.0 | 0.00 | 0.02 | 0.02 | 97 | 1024.9 |
| 20260831020012 | 66 | 235 | 0.0 | 0.0 | 0.00 | 0.02 | 0.02 | 97 | 1025.0 |
| 20260831014002 | 66 | 235 | 0.0 | 0.0 | 0.00 | 0.02 | 0.02 | 97 | 1025.0 |
| 20260831013002 | 66 | 235 | 0.0 | 0.0 | 0.00 | 0.02 | 0.02 | 96 | 1024.9 |
| 20260831012003 | 66 | 235 | 0.0 | 0.0 | 0.00 | 0.02 | 0.02 | 96 | 1024.9 |
| 20260831010003 | 66 | 235 | 0.0 | 0.0 | 0.00 | 0.02 | 0.02 | 96 | 1024.8 |
| 20260831004003 | 66 | 235 | 0.0 | 0.0 | 0.00 | 0.02 | 0.02 | 95 | 1024.3 |
| 20260831003003 | 66 | 235 | 0.0 | 2.0 | 0.00 | 0.02 | 0.02 | 95 | 1024.0 |
| 20260831001002 | 67 | 235 | 0.0 | 3.0 | 0.00 | 0.02 | 0.02 | 93 | 1023.9 |
| 20260831000002 | 67 | 70 | 0.0 | 2.0 | 0.00 | 0.02 | 0.02 | 93 | 1023.9 |
| 20260830235002 | 67 | 49 | 0.0 | 0.0 | 0.00 | 0.02 | 0.02 | 93 | 1023.8 |
| 20260830234003 | 67 | 49 | 0.0 | 1.0 | 0.00 | 0.02 | 0.02 | 93 | 1023.8 |
| 20260830233002 | 68 | 162 | 0.0 | 2.0 | 0.00 | 0.02 | 0.02 | 92 | 1023.9 |
| 20260830232003 | 68 | 162 | 1.0 | 3.0 | 0.00 | 0.02 | 0.02 | 92 | 1023.7 |
| 20260830231002 | 68 | 154 | 1.0 | 2.0 | 0.00 | 0.02 | 0.02 | 92 | 1023.8 |
| 20260830230002 | 68 | 275 | 0.0 | 1.0 | 0.00 | 0.02 | 0.02 | 92 | 1023.9 |
| 20260830225002 | 68 | 275 | 0.0 | 2.0 | 0.00 | 0.02 | 0.02 | 92 | 1024.0 |
| 20260830223003 | 69 | 46 | 0.0 | 3.0 | 0.00 | 0.02 | 0.02 | 92 | 1024.1 |
| 20260830222004 | 69 | 200 | 1.0 | 2.0 | 0.00 | 0.02 | 0.02 | 92 | 1024.0 |
| 20260830221003 | 69 | 36 | 0.0 | 3.0 | 0.00 | 0.02 | 0.02 | 92 | 1024.1 |
| 20260830220003 | 69 | 134 | 1.0 | 3.0 | 0.00 | 0.02 | 0.02 | 92 | 1024.0 |
| 20260830215002 | 69 | 241 | 0.0 | 3.0 | 0.00 | 0.02 | 0.02 | 93 | 1024.1 |
| 20260830213003 | 68 | 128 | 0.0 | 1.0 | 0.00 | 0.02 | 0.02 | 93 | 1023.9 |
| 20260830212002 | 68 | 135 | 0.0 | 2.0 | 0.00 | 0.02 | 0.02 | 93 | 1024.0 |
| 20260830211004 | 68 | 181 | 0.0 | 2.0 | 0.00 | 0.02 | 0.02 | 93 | 1024.0 |
| 20260830210003 | 68 | 182 | 1.0 | 2.0 | 0.00 | 0.02 | 0.02 | 93 | 1024.0 |
| 20260830205002 | 68 | 110 | 0.0 | 5.0 | 0.00 | 0.02 | 0.02 | 92 | 1024.1 |
| 20260830204002 | 68 | 235 | 0.0 | 7.0 | 0.00 | 0.02 | 0.02 | 92 | 1024.1 |
| 20260830203003 | 69 | 97 | 1.0 | 5.0 | 0.00 | 0.02 | 0.02 | 92 | 1024.2 |
| 20260830201004 | 69 | 106 | 1.0 | 3.0 | 0.00 | 0.02 | 0.02 | 94 | 1024.1 |
| 20260830200002 | 70 | 233 | 0.0 | 3.0 | 0.00 | 0.02 | 0.02 | 94 | 1024.1 |
| 20260830195002 | 70 | 239 | 1.0 | 2.0 | 0.00 | 0.02 | 0.02 | 95 | 1024.3 |
| 20260830194003 | 70 | 239 | 0.0 | 3.0 | 0.00 | 0.02 | 0.02 | 96 | 1024.2 |
| 20260830193003 | 70 | 300 | 0.0 | 1.0 | 0.00 | 0.02 | 0.02 | 96 | 1024.3 |
| 20260830192003 | 70 | 307 | 1.0 | 3.0 | 0.00 | 0.02 | 0.02 | 97 | 1024.4 |
| 20260830191003 | 70 | 219 | 1.0 | 2.0 | 0.00 | 0.02 | 0.02 | 96 | 1024.5 |
| 20260830190003 | 69 | 218 | 0.0 | 2.0 | 0.00 | 0.02 | 0.02 | 96 | 1024.7 |
| 20260830185003 | 69 | 218 | 1.0 | 2.0 | 0.00 | 0.02 | 0.02 | 96 | 1024.6 |
| 20260830184002 | 69 | 218 | 0.0 | 1.0 | 0.00 | 0.02 | 0.02 | 96 | 1024.7 |
| 20260830183002 | 69 | 218 | 0.0 | 1.0 | 0.00 | 0.02 | 0.02 | 96 | 1024.9 |
| 20260830180004 | 68 | 218 | 0.0 | 1.0 | 0.00 | 0.02 | 0.02 | 97 | 1025.0 |
| 20260830175004 | 68 | 218 | 0.0 | 2.0 | 0.00 | 0.02 | 0.02 | 98 | 1025.1 |
| 20260830174003 | 68 | 167 | 0.0 | 0.0 | 0.00 | 0.02 | 0.02 | 98 | 1025.0 |
| 20260830173003 | 68 | 167 | 0.0 | 2.0 | 0.00 | 0.02 | 0.02 | 98 | 1025.0 |
| 20260830172004 | 68 | 277 | 0.0 | 1.0 | 0.00 | 0.02 | 0.02 | 98 | 1025.0 |
| 20260830171003 | 68 | 277 | 0.0 | 2.0 | 0.00 | 0.02 | 0.02 | 98 | 1025.0 |
| 20260830170004 | 67 | 136 | 0.0 | 0.0 | 0.00 | 0.02 | 0.02 | 98 | 1025.0 |
| 20260830165004 | 67 | 136 | 0.0 | 0.0 | 0.00 | 0.02 | 0.02 | 98 | 1025.0 |
| 20260830164003 | 67 | 136 | 0.0 | 1.0 | 0.00 | 0.02 | 0.02 | 98 | 1025.0 |
| 20260830163003 | 67 | 136 | 0.0 | 2.0 | 0.00 | 0.02 | 0.02 | 98 | 1025.1 |
| 20260830162003 | 67 | 275 | 0.0 | 2.0 | 0.00 | 0.02 | 0.02 | 98 | 1025.1 |
| 20260830161005 | 67 | 248 | 1.0 | 3.0 | 0.00 | 0.02 | 0.02 | 98 | 1025.3 |
| 20260830160005 | 67 | 139 | 0.0 | 1.0 | 0.01 | 0.02 | 0.02 | 98 | 1025.3 |
| 20260830155003 | 67 | 200 | 0.0 | 2.0 | 0.01 | 0.02 | 0.02 | 98 | 1025.3 |
| 20260830154004 | 66 | 204 | 0.0 | 0.0 | 0.02 | 0.02 | 0.02 | 97 | 1025.3 |
| 20260830153003 | 66 | 204 | 0.0 | 0.0 | 0.02 | 0.02 | 0.02 | 97 | 1025.2 |